Home   Weather   Orange Walk Town   Past weeks
Flag for Belize

Past Weather in Orange Walk Town, Belize — Yesterday and Last 2 Weeks

Now
84 °F

Broken clouds.


Feels Like: 94 °F
Forecast: 90 / 78 °F
Wind: 6 mph from East

Location: Chetumal - Q. Roo

Current Time: Jun 15, 2019 at 6:48:12 pm

Latest Report: Jun 15, 2019 at 5:42 pm


Visibility: 7 mi

Pressure: 29.91 "Hg

Humidity: 79%

Dew Point: 77 °F

Location of Orange Walk TownLocation

Past Weather in Orange Walk Town — Graph

°F

Orange Walk Town Temperature Yesterday

Maximum temperature yesterday: 90 °F (at 12:40 pm)
Minimum temperature yesterday: 82 °F (at 2:51 am)
Average temperature yesterday: 85 °F

High & Low Weather Summary for the Past Weeks

 TemperatureHumidityPressure
High91 °F (Jun 9, 1:40 pm)100% (Jun 1, 3:03 am)30.01 "Hg (Jun 1, 3:03 am)
Low73 °F (Jun 2, 11:45 pm)62% (Jun 14, 3:42 pm)29.76 "Hg (Jun 1, 4:40 pm)
Average84 °F78%29.89 "Hg
* Reported May 31 4:57 pm — Jun 15 4:45 pm, Orange Walk Town. Weather by CustomWeather, © 2019

Note: Actual official high and low records may vary slightly from our data, if they occured in-between our weather recording intervals... More about our weather records

Advertising

Orange Walk Town Weather History for the Previous 24 Hours

Scroll right to see more
 ConditionsComfort  
Time TempWeatherWind HumidityBarometerVisibility
4:45 pm
Sat, Jun 15
82 °FPartly sunny.12 mph84%29.90 "Hg7 mi
3:46 pm86 °FBroken clouds.17 mph75%29.89 "Hg7 mi
2:48 pm90 °FBroken clouds.17 mph67%29.91 "Hg7 mi
1:41 pm90 °FScattered clouds.16 mph67%29.93 "Hg7 mi
12:41 pm90 °FBroken clouds.12 mph67%29.94 "Hg7 mi
10:43 am88 °FBroken clouds.20 mph66%29.98 "Hg7 mi
10:05 am88 °FPartly sunny.12 mph70%29.99 "Hg7 mi
8:44 am86 °FPartly sunny.12 mph75%29.99 "Hg7 mi
7:49 am86 °FPartly sunny.12 mph75%29.99 "Hg7 mi
6:54 am84 °FBroken clouds.No wind79%29.98 "Hg7 mi
5:47 am82 °FBroken clouds.No wind84%29.97 "Hg7 mi
4:41 am82 °FPartly cloudy.No wind84%29.96 "Hg7 mi
3:48 am82 °FPassing clouds.6 mph84%29.95 "Hg7 mi
3:04 am82 °FPassing clouds.6 mph84%29.95 "Hg7 mi
10:47 pm
Fri, Jun 14
82 °FPartly cloudy.12 mph84%30.01 "Hg7 mi
9:50 pm82 °FPartly cloudy.6 mph84%30.00 "Hg7 mi
8:46 pm82 °FPartly cloudy.6 mph84%29.99 "Hg7 mi
7:43 pm84 °FPartly cloudy.12 mph74%29.97 "Hg7 mi
6:43 pm84 °FPartly cloudy.6 mph74%29.96 "Hg7 mi
Weather by CustomWeather, © 2019

See weather overview